sat.trackr.live / text

‹ back to catalog

STARLINK-4667

NORAD 53707 · 2022-107H

PAYLOAD ACTIVE UNKNOWN

§ Identity

Operator
Country
US
Launch date
2022-09-05
Launch site
AFETR
Launch vehicle
Mass (kg)
RCS (m²)

Purposes: comms

External: N2YO · Heavens-Above · Gunter

§ Orbital elements

Epoch: 2026-09-20T04:16:42.873600Z

Period
93.85 min
Inclination
53.1597°
Eccentricity
0.0001054
Mean motion
15.34383428 rev/d
Perigee alt
462.0 km
Apogee alt
463.5 km
Semi-major
6,840.9 km
B*
2.2210e-4
RAAN
62.8797°
Arg perigee
88.1828°
Mean anomaly
271.9296°
Rev number
22,460

§ Raw data

STARLINK-46671 53707U 22107H   26263.17827400  .00007131  00000+0  22210-3 0  99932 53707  53.1597  62.8797 0001054  88.1828 271.9296 15.34383428224609

JSON: /api/v1/satellites/53707 · /tle

For live sub-satellite position, see the globe view (requires WebGL).

§ Visibility from observer

Set your observer location to see the next 7 days of passes ≥ 10°. The values pass through the URL so the page stays shareable.

No JS? Fill the form by hand. The geolocation button needs JavaScript.